Location: Unspecified
(0.0000°N, 0.0000°E)
Time: 07:02:43
(UTC+00:00)

SEEDS - Pass Details

Date: 01 April 2019
Orbit: 585 x 606 km, 97.5° (Epoch: 19 April)

Event Time Altitude Azimuth Distance (km) Brightness Sun altitude
Rises 18:33:21 0° 188° (S) 2,858 ? -7.3°
Reaches altitude 10° 18:35:47 10° 200° (SSW) 1,951 ? -7.9°
Maximum altitude 18:39:23 27° 258° (WSW) 1,167 ? -8.8°
Drops below altitude 10° 18:42:57 10° 317° (NW) 1,936 ? -9.7°
Sets 18:45:21 0° 329° (NNW) 2,832 ? -10.3°
